This is the latest recevied weather packets stored in our database for station/object KB4RFE. If no packets are shown the sender has not sent any weather packets the latest 1 day(s).
| Time | Temp. | Humidity | Pressure | Rain* | Wind** | Luminosity | Snow |
|---|---|---|---|---|---|---|---|
| 1778051479 | 20.56° C | 83% | 1018.4 hPa | 0 mm | 0.89 m/s, 264° | 0 W/m² | - |
| 1778051176 | 20.56° C | 83% | 1018.3 hPa | 0 mm | 0.89 m/s, 269° | 0 W/m² | - |
| 1778050874 | 20.56° C | 83% | 1018.4 hPa | 0 mm | 1.79 m/s, 214° | 0 W/m² | - |
| 1778050572 | 20.56° C | 83% | 1018.5 hPa | 0 mm | 1.79 m/s, 223° | 0 W/m² | - |
| 1778050268 | 20.56° C | 83% | 1018.4 hPa | 0 mm | 2.24 m/s, 221° | 0 W/m² | - |
| 1778049965 | 20.56° C | 82% | 1018.7 hPa | 0 mm | 0.89 m/s, 247° | 0 W/m² | - |
| 1778049660 | 20.56° C | 82% | 1018.7 hPa | 0 mm | 1.34 m/s, 231° | 0 W/m² | - |
| 1778049359 | 20.56° C | 82% | 1018.8 hPa | 0 mm | 1.79 m/s, 226° | 0 W/m² | - |
| 1778049055 | 20.56° C | 82% | 1018.8 hPa | 0 mm | 1.79 m/s, 242° | 0 W/m² | - |
| 1778048754 | 20.56° C | 82% | 1018.6 hPa | 0 mm | 1.34 m/s, 234° | 0 W/m² | - |
| 1778048450 | 20.56° C | 82% | 1018.7 hPa | 0 mm | 0.89 m/s, 285° | 0 W/m² | - |
| 1778048146 | 20.56° C | 81% | 1018.5 hPa | 0 mm | 1.79 m/s, 242° | 0 W/m² | - |
| 1778047844 | 20.56° C | 81% | 1018.6 hPa | 0 mm | 1.79 m/s, 240° | 0 W/m² | - |
| 1778047543 | 20.56° C | 80% | 1018.4 hPa | 0 mm | 0.89 m/s, 269° | 0 W/m² | - |
| 1778047239 | 20.56° C | 80% | 1018.8 hPa | 0 mm | 0.89 m/s, 279° | 0 W/m² | - |
| 1778046936 | 20.56° C | 79% | 1018.5 hPa | 0 mm | 1.79 m/s, 253° | 0 W/m² | - |
| 1778046633 | 20.56° C | 79% | 1018.8 hPa | 0 mm | 0.89 m/s, 268° | 0 W/m² | - |
| 1778046330 | 20.56° C | 80% | 1018.7 hPa | 0 mm | 0.89 m/s, 245° | 0 W/m² | - |
| 1778046026 | 20.56° C | 79% | 1018.9 hPa | 0 mm | 0.89 m/s, 247° | 0 W/m² | - |
| 1778045724 | 20.56° C | 78% | 1019.1 hPa | 0 mm | 1.34 m/s, 237° | 0 W/m² | - |
| 1778045422 | 20.56° C | 77% | 1019.2 hPa | 0 mm | 1.34 m/s, 258° | 0 W/m² | - |
| 1778045120 | 20.56° C | 77% | 1019.1 hPa | 0 mm | 0.89 m/s, 240° | 0 W/m² | - |
| 1778044818 | 20.56° C | 77% | 1019.2 hPa | 0 mm | 1.34 m/s, 218° | 0 W/m² | - |
| 1778044514 | 20.56° C | 77% | 1019.3 hPa | 0 mm | 1.34 m/s, 252° | 0 W/m² | - |
| 1778044211 | 20.56° C | 77% | 1019.3 hPa | 0 mm | 1.79 m/s, 220° | 0 W/m² | - |
* Rain latest hour (hover to see other rain measurements)
** Current wind speed in m/s (hover to see current wind gust speed)